Погода в Владикавказе

Погода в Владикавказе : погода сейчас, прогноз погоды и архив. Всё, что Вы хотите узнать о погоде в Владикавказе!

Поиск расширенной информации на нашем сайте:

Другие новости

Новости СМИ2

Главная страница сайта

Новости сайта

03.07.2017

Напоминаем, что на нашем специализированном сайте Метеоцентр.Азия вы можете получить высокодетализированные автоматические прогнозы погоды по пунктам России, СНГ и мира в авиационном формате (включающие направление и скорость ветра, видимость, явления погоды, количество и форму облачности, нижнюю и верхнюю границу облачности).

Рекомендуем: Интернет магазин вышивки и вязания пряжа http://www.kudel.ru.

Погода в Владикавказе - сегодня

Время (UTC), дата Ветер
(°,м/с) 
Видим.   Явления Облачность Т
(°С)
Тd
(°С)
f(%) Тe
(°С)
Pmin
(гПа)
dP
(гПа)
Po
(мм)
O2
(г/м3)
Тmin Tmax R s Состояние
почвы
03 19.05.18 тихо ()   20000 м    4/0 средняя, верхняя 
[Ac trans|Ci fib]
+15.5 +8 61 +16  1016.8  1.2  702  266  +13.5        сухая 
06 19.05.18 290 (З) 20000 м    3/0 верхняя 
[Ci fib]
+21 +8.8 46 +22  1015  -0.2  702  261           
09 19.05.18 350 (С) 20000 м    9/1 600 м средняя, верхняя 
[Cu Sc|Ac lent|Ci]
+25.3 +7.9 33 +25  1012.8  -1  702  257           
12 19.05.18 030 (СВ) 20000 м    9/8 600 м кучево-дожд., средняя 
[Cb calv|Ac As]
+26.2 +7.5 30 +26  1011.8  -0.7  701  256           
15 19.05.18 тихо ()   20000 м  гроза, ливневой дождь  10/10 600 м кучево-дожд. 
[Cb cap]
+17 +13.6 80 +25  1016.4  2.1  703  264    +27  0.8     
18 19.05.18 170 (Ю) 10 км  в посл. час ливневой дождь{гроза}  8/8 600 м 
[Sc diur, vesp]
+16.1 +12.7 80 +24  1015.6  -1  702  264           
21 19.05.18 160 (Ю) 10 км    8/0 средняя 
[Ac As]
+14.3 +11.4 83 +21  1015.5  -0.6  701  266           
00 20.05.18 тихо ()   10 км    8/0 средняя 
[Ac As]
+13.7 +10.1 79 +16  1015.5  -0.2  701  267           
03 20.05.18 тихо ()   20000 м    9/0 средняя 
[Ac As]
+14.5 +10.1 75 +17  1014.8  -0.2  701  266  +13.4      влажная 
06 20.05.18 280 (З) 20000 м    9/0 средняя, верхняя 
[As trans|Cs]
+22.9 +11.1 47 +27  1012.2  -0.3  701  258           
09 20.05.18 280 (З) 20000 м    10/6 600 м средняя, верхняя 
[Cu Sc|Ac As|Ci]
+24.6 +10.7 42 +28  1011.7  0.1  701  257           
12 20.05.18 160 (Ю) 20000 м    10/8 600 м кучево-дожд., средняя 
[Cb calv|Ac As]
+21.9 +9.5 45 +24  1012.5  0.1  701  260           
15 20.05.18 тихо ()   20000 м  {ливн. осадки}  8/5 600 м средняя 
[Sc diur, vesp|Ac As]
+19.9 +12.9 64 +27  1012.8  -0.2  701  261    +25  0.0     
18 20.05.18 160 (Ю) 10 км  {ливн. осадки}  6/6 600 м 
[Sc]
+17.2 +13.6 79 +27  1013.8  0.2  701  263           
21 20.05.18 170 (Ю) 10 км    4/4 600 м 
[Sc]
+15.4 +11.1 76 +21  1013.4  -0.8  700  265           
00 21.05.18 тихо ()   10 км    ясно 
+14 +9.5 74 +16  1013.4  -0.4  700  266           
03 21.05.18 170 (Ю) 20000 м    6/3 600 м средняя, верхняя 
[Sc|Ac und|Ci fib]
+14.3 +9.3 72 +18  1014.6  1.2  701  267  +13        влажная 
06 21.05.18 300 (СЗ) 20000 м    4/3 600 м средняя 
[Cu Sc|Ac und]
+22.7 +11 48 +27  1012.7  0.5  701  259           
09 21.05.18 270 (З) 20000 м    9/8 600 м кучево-дожд., средняя 
[Cb cap|Ac As]
+24.5 +10.7 42 +28  1012.2  701  257           
12 21.05.18 310 (СЗ) 20000 м    10/10 600 м кучево-дожд. 
[Cb cap]
+21.9 +12.8 56 +29  1013.9  702  259           
15 21.05.18 тихо ()   10 км  слаб. ливневой дождь  10/10 600 м кучево-дожд. 
[Cb cap]
+16.2 +14.1 87 +25  1017.8  2.2  703  265    +24.8     
18 21.05.18 тихо ()   10 км  слаб. ливневой дождь  10/10 600 м кучево-дожд. 
[Cb cap]
+15.2 +13.5 90 +23  1019.5  1.2  704  266           
21 21.05.18 150 (ЮВ) 10 км  {ливн. осадки}  10/10 600 м кучево-дожд. 
[Cb cap]
+15 +13 88 +23  1019.1  -0.3  704  266           
00 22.05.18 170 (Ю) 10 км  {ливн. осадки}  10/10 600 м 
[Sc]
+14.8 +12.9 88 +23  1018.7  -0.4  704  266           
03 22.05.18 160 (Ю) 10 км    10/10 600 м кучево-дожд. 
[Cb cap]
+15.2 +12.9 86 +24  1019.5  0.8  704  266  +14.7    0.0    влажная 
Время (UTC), дата Ветер
(°,м/с) 
Видим.   Явления Облачность Т
(°С)
Тd
(°С)
f(%) Тe
(°С)
Pmin
(гПа)
dP
(гПа)
Po
(мм)
O2
(г/м3)
Тmin Tmax R s Состояние
почвы

Для получения пояснительной информации подведите курсор к названию столбца.

ПОГОДА в Владикавказе - архив

Всё, что Вы хотите узнать о погоде в Владикавказе - удобно и подробно!

Выберите нужную дату (начиная с 1 января 2015* года) и нажмите кнопку "Найти".
Будут отображены архивные сводки погоды по пункту Владикавказ, начиная с указанной даты.


Отображать данные в формате CSV (для использования в таблицах Excel)


Внимание! Наш архив погоды предназначен исключительно для личного некоммерческого использования в познавательных целях. Если Вам необходимы официальные справки о состоянии погоды (для производственных, юридических, коммерческих и т.п. целей), обращайтесь в органы Росгидромета.

*Примечание: данная дата относится к архиву по метеостанциям СССР (Россия, СНГ, Балтия).
Архив по метеостанциям Зарубежной Европы и Азии (кроме Китая) хранится 10 дней, по другим регионам земного шара (Китай, Африка, Америка, Австралия, Океания) - 1 день.

Владикавказ - район местоположения метеостанции


Название, широта, долгота, высота метеостанции:
Владикавказ 43.1°ш. 44.6°д. 703 м над ур. моря [Российская Федерация]

Дополнительная информация

В oтличие oт бoльшинства пoгoдных сайтoв мы публикуем пoдрoбную метеoинфoрмацию в детальнoм прoфессиoнальнoм фoрмате.

Характеристики температуры и влажнoсти вoздуха измеряются на высoте 2 м в тени вдали oт зданий и деревьев.
Скoрoсть ветра измеряется на высoте 10 м (на урoвне рoста челoвека скoрoсть ветра ниже в 1.5-2 раза). Если метеoстанция нахoдится в гoрoде или в лесу, тo скoрoсть ветра занижена на 2-4 м/с пo сравнению с oткрытым местoм. Скoрoсть ветра над акватoриями крупных рек и oзёр, а также на вершинах хoлмoв на 2-5 м/с выше, чем в oбычных услoвиях.
Атмoсфернoе давление в разных тoчках местнoсти мoжет значительнo oтличаться oт давления на метеoстанции, в зависимoсти oт услoвий рельефа (при пoдъёме на 10 м давление пoнижается примернo на 1 мм рт.ст.).